Flag for Switzerland

Past Weather in Uster, Zurich, Switzerland — Yesterday and Last 2 Weeks

Now
44 °F

Quite cool.


Feels Like: 37 °F
Forecast: 56 / 42 °F
Wind: 15 mph from Southwest

Location: Zuerich-Fluntern
Current Time: Sep 26, 2020 at 8:24:11 am
Latest Report: Sep 26, 2020 at 7:00 am
Visibility: N/A
Pressure29.72 "Hg
Humidity: 84%
Dew Point: 39 °F
Location of UsterLocation

Past Weather in Uster — Graph

°F

Uster Temperature Yesterday

Maximum temperature yesterday: 55 °F (at 1:00 am)
Minimum temperature yesterday: 44 °F (at 7:00 pm)
Average temperature yesterday: 49 °F

High & Low Weather Summary for the Past Weeks

 TemperatureHumidityPressure
High82 °F (Sep 14, 5:00 pm)98% (Sep 20, 7:00 am)30.31 "Hg (Sep 20, 7:00 am)
Low44 °F (Sep 26, 6:00 am)42% (Sep 16, 4:00 pm)29.60 "Hg (Sep 25, 4:00 am)
Average64 °F78%30.00 "Hg
* Reported Sep 11 6:00 am — Sep 26 6:00 am, Uster. Weather by CustomWeather, © 2020

Note: Actual official high and low records may vary slightly from our data, if they occured in-between our weather recording intervals... More about our weather records

Uster Weather History for the Previous 24 Hours

Scroll right to see more
 ConditionsComfort  
Time TempWeatherWind HumidityBarometerVisibility
6:00 am
Sat, Sep 26
44 °FQuite cool.13 mph90%29.71 "HgN/A
5:00 am44 °FQuite cool.14 mph86%29.70 "HgN/A
4:00 am44 °FQuite cool.13 mph88%29.71 "HgN/A
3:00 am44 °FQuite cool.9 mph91%29.71 "HgN/A
2:00 am44 °FQuite cool.10 mph87%29.71 "HgN/A
1:00 am44 °FQuite cool.12 mph86%29.71 "HgN/A
12:00 am44 °FQuite cool.12 mph86%29.70 "HgN/A
11:00 pm
Fri, Sep 25
44 °FQuite cool.10 mph86%29.69 "HgN/A
10:00 pm45 °FQuite cool.9 mph85%29.69 "HgN/A
9:00 pm44 °FQuite cool.7 mph89%29.67 "HgN/A
8:00 pm45 °FCool.6 mph95%29.65 "HgN/A
7:00 pm44 °FQuite cool.5 mph96%29.65 "HgN/A
6:00 pm46 °FCool.6 mph92%29.63 "HgN/A
5:00 pm47 °FCool.5 mph89%29.63 "HgN/A
4:00 pm46 °FCool.5 mph89%29.63 "HgN/A
3:00 pm46 °FCool.6 mph88%29.64 "HgN/A
2:00 pm48 °FCool.9 mph79%29.64 "HgN/A
1:00 pm49 °FCool.12 mph70%29.64 "HgN/A
12:00 pm50 °FCool.5 mph76%29.64 "HgN/A
11:00 am48 °FCool.8 mph77%29.66 "HgN/A
10:00 am47 °FCool.6 mph83%29.67 "HgN/A
9:00 am47 °FCool.12 mph84%29.68 "HgN/A
8:00 am46 °FCool.9 mph89%29.69 "HgN/A
Weather by CustomWeather, © 2020

See weather overview